Weather History for Ellsworth AFB, SD

Change the Weather History Date:

Thursday, November 22, 2012

  Actual Average Record
Temperature  
Mean Temperature 34 °F -  
Max Temperature 48 °F 41 °F 69 °F (2002)
Min Temperature 20 °F 21 °F -2 °F (2010)
Degree Days  
Heating Degree Days 30    
Moisture  
Dew Point 24 °F    
Average Humidity 59    
Maximum Humidity 87    
Minimum Humidity 30    
Precipitation  
Precipitation 0.00 in - - ()
Sea Level Pressure  
Sea Level Pressure 30.16 in    
Wind  
Wind Speed 24 mph (NNW)    
Max Wind Speed 36 mph    
Max Gust Speed 45 mph    
Visibility 10 miles    
Events Rain    
Averages and records for this station are not official NWS values.
T = Trace of Precipitation, MM = Missing Value Source: NWS Daily Summary

Daily Weather History Graph

Daily Weather History Graph

Search for Another Location

Airport:

Trip Planner

Search our weather history database for the weather conditions in past years. The results will help you decide how hot, cold, wet, or windy it might be!

Date:

Astronomy

Nov. 22, 2012 Rise Set
Actual Time 6:57 AM MST 4:19 PM MST
Civil Twilight 6:25 AM MST 4:51 PM MST
Nautical Twilight 5:50 AM MST 5:26 PM MST
Astronomical Twilight 5:15 AM MST 6:01 PM MST
Moon 1:15 PM MST (11/22) 1:08 AM MST (11/22)
Length of Visible Light 10h 25m
Length of Day
9h 22m
Waxing Gibbous, 72% of the Moon is Illuminated
Nov 22
Waxing Gibbous
Nov 28
Full
Dec 6
Last Quarter
Dec 13
New
Dec 19
First Quarter

Hourly Weather History & Observations

Time (MST) Temp. Windchill Dew Point Humidity Pressure Visibility Wind Dir Wind Speed Gust Speed Precip Events Conditions
12:55 AM 48.6 °F - 32.5 °F 54% 29.76 in 10.0 mi NNW 24.2 mph - N/A   Mostly Cloudy
1:55 AM 47.3 °F - 33.4 °F 59% 29.78 in 10.0 mi NNW 21.9 mph 33.4 mph N/A   Overcast
2:55 AM 44.6 °F 37.4 °F 34.0 °F 66% 29.83 in 10.0 mi NNW 16.1 mph 23.0 mph N/A   Partly Cloudy
3:47 AM 42.8 °F 34.0 °F 35.6 °F 76% 29.86 in 10.0 mi NNW 20.7 mph 31.1 mph N/A Rain Light Rain
3:55 AM 41.9 °F 32.8 °F 35.8 °F 79% 29.86 in 10.0 mi NNW 20.7 mph 26.5 mph 0.00 in Rain Light Rain
4:00 AM 41.0 °F 31.1 °F 35.6 °F 81% 29.88 in 10.0 mi NNW 23.0 mph 28.8 mph N/A   Overcast
4:55 AM 39.7 °F 27.9 °F 33.4 °F 78% 29.94 in 10.0 mi NW 31.1 mph 39.1 mph 0.00 in   Overcast
5:55 AM 36.5 °F 24.2 °F 32.9 °F 87% 29.99 in 10.0 mi NW 27.6 mph 34.5 mph N/A   Overcast
6:55 AM 36.1 °F 27.3 °F 29.5 °F 77% 30.01 in 10.0 mi NW 13.8 mph - N/A   Mostly Cloudy
7:55 AM 38.7 °F 29.5 °F 27.9 °F 65% 30.06 in 10.0 mi WNW 17.3 mph - N/A   Overcast
8:55 AM 43.0 °F 34.2 °F 25.9 °F 51% 30.07 in 10.0 mi WNW 20.7 mph - N/A   Clear
9:55 AM 45.3 °F 36.1 °F 19.9 °F 36% 30.09 in 10.0 mi NW 27.6 mph 32.2 mph N/A   Clear
10:55 AM 45.7 °F 35.7 °F 16.0 °F 30% 30.12 in 10.0 mi WNW 33.4 mph 44.9 mph N/A   Clear
11:55 AM 45.3 °F 34.9 °F 16.9 °F 32% 30.13 in 10.0 mi NW 35.7 mph 40.3 mph N/A   Clear
12:55 PM 45.9 °F 36.6 °F 19.4 °F 35% 30.16 in 10.0 mi NNW 28.8 mph 39.1 mph N/A   Scattered Clouds
1:02 PM 44.6 °F 34.1 °F 23.0 °F 43% 30.18 in 8.0 mi NW 34.5 mph 42.6 mph N/A Rain Light Rain
1:07 PM 41.0 °F 30.7 °F 28.4 °F 61% 30.19 in 4.0 mi NNW 25.3 mph 42.6 mph N/A Rain Rain
1:25 PM 39.2 °F 28.7 °F 28.4 °F 65% 30.21 in 10.0 mi NNW 23.0 mph 28.8 mph N/A   Scattered Clouds
1:30 PM 39.2 °F 29.0 °F 28.4 °F 65% 30.21 in 10.0 mi NNW 21.9 mph 28.8 mph N/A   Scattered Clouds
1:55 PM 42.1 °F 32.1 °F 24.1 °F 49% 30.20 in 10.0 mi NW 25.3 mph 32.2 mph 0.00 in   Clear
2:55 PM 42.4 °F 32.8 °F 21.7 °F 44% 30.23 in 10.0 mi NW 24.2 mph 31.1 mph N/A   Scattered Clouds
3:46 PM 41.0 °F 30.7 °F 23.0 °F 49% 30.27 in 10.0 mi NW 25.3 mph 33.4 mph N/A Rain Light Rain
3:55 PM 39.9 °F 30.0 °F 23.7 °F 52% 30.28 in 10.0 mi NW 21.9 mph 28.8 mph 0.00 in Rain Light Rain
3:56 PM 39.2 °F 29.0 °F 23.0 °F 52% 30.28 in 10.0 mi NW 21.9 mph 28.8 mph N/A   Overcast
4:55 PM 32.9 °F 19.8 °F 23.0 °F 67% 30.35 in 10.0 mi NNW 25.3 mph 35.7 mph N/A   Mostly Cloudy
5:55 PM 31.1 °F 17.2 °F 20.5 °F 65% 30.39 in 10.0 mi NNW 26.5 mph 35.7 mph N/A   Scattered Clouds
6:55 PM 28.0 °F 14.9 °F 17.4 °F 64% 30.44 in 10.0 mi North 19.6 mph - N/A   Clear
7:55 PM 24.8 °F 10.7 °F 15.6 °F 68% 30.47 in 10.0 mi North 19.6 mph 25.3 mph N/A   Clear
8:55 PM 24.8 °F 7.6 °F 13.1 °F 61% 30.47 in 10.0 mi NNW 31.1 mph 39.1 mph N/A   Clear
9:55 PM 23.0 °F 7.6 °F 12.0 °F 63% 30.50 in 10.0 mi North 21.9 mph 33.4 mph N/A   Clear
10:55 PM 21.9 °F 5.5 °F 10.9 °F 63% 30.51 in 10.0 mi NNW 24.2 mph - N/A   Clear
11:55 PM 20.3 °F 5.2 °F 10.6 °F 66% 30.55 in 10.0 mi North 18.4 mph - N/A   Clear